Погода в Зольской

Россия / Ставропольский край     43˚54′16″N   43˚17′51″E
темп.,
°C
ветер,
м/с
пор.,
м/с
влажн.,
%
обл.,
%
осадки,
мм/ч
давл.,
гПа
погр.,
м
16 января, сб
сб1600:00з2481100 0.1 1014270
03:00−1˚з1275100 0.1 101626
06:00−1˚ююв227566 0.0 101736
09:00ююв366734 0.0 1018319
12:00+3˚юв45570 0.0 1017832
15:00+3˚вюв456332 0.0 1015871
18:00+1˚вюв2580100 0.0 1016156
21:00вюв4885100 0.2 1015559
17 января, вс
вс1700:00−1˚вюв4886100 0.1 1013478
03:00−2˚вюв4789100 0.1 1010458
06:00−1˚вюв5994100 0.4 1008489
09:00−1˚юв5992100 0.8 1006518
12:00вюв5894100 0.3 1004428
15:00−1˚в5796100 0.5 1003305
18:00−1˚в4697100 0.1 1004270
21:00−2˚в4797100 0.3 1003275
18 января, пн
пн1800:00−2˚в3597100 0.1 1003220
03:00−2˚всв1196100 0.3 1004116
06:00−2˚с2298100 0.3 1007104
09:00−2˚сз369395 0.6 1011361
12:00−1˚сз61077100 0.1 1012625
15:00−2˚сз61267100 0.1 1014867
18:00−2˚сз41170100 0.0 1018748
21:00−3˚сз3869100 0.0 1019466
19 января, вт
вт1900:00−3˚зсз1273100 0.0 1020153
03:00−3˚сз2469100 0.0 1020303
06:00−4˚юв2280100 0.1 1020232
09:00−3˚ююв4681100 0.1 1021403
12:00−1˚юв575854 0.0 1018883
15:00−1˚ююв455763 0.0 1018849
18:00−4˚зсз348995 0.3 1020257
21:00−4˚св129097 0.4 1022233
20 января, ср
ср2000:00−5˚с3592100 0.3 1023341
03:00−6˚ссз128897 0.6 1025234
06:00−6˚с1189100 0.1 1026202
09:00−6˚всв118799 0.1 1027240
12:00−4˚всв117599 0.1 1026546
15:00−4˚с117699 0.2 1026458
18:00−5˚ссз2480100 0.4 1029423
21:00−6˚ссз237795 0.5 1031270